STARLINK-34344, 64159

Orbit data source: Space-Track

STARLINK-34344, 64159 is a payload satellite owned by SpaceX/Seattle (US) in SSO that was launched on Tue, 27 May 2025 UTC via an FALCON 9 launch vehicle from the Air Force Western Test Range (AFWTR). Payload-class satellites include a variety of spacecraft equipped with specific instruments for various scientific and technological missions. These include communications satellites like Starlink; space stations such as the ISS; scientific satellites like the Hubble; Earth observation satellites from companies like Planet Labs, Umbra, and HawkEye 360; GPS; miniature CubeSats for education and research; and military/defense satellites.

Loading next visibility...
Identifier
64159, 2025-112P
Orbit
SSO
Country
Flag of USUS
Related business
Manufacturer
SpaceX/Seattle
Mission
Operational Commercial Communications
Bus & Motor
STARLINK V2MO, Unknown motor
Mass
575 kg wet, ~530 kg dry
Launch date (UTC)
2025-05-27 (1 year ago)
Launch vehicle
FALCON 9
Launch site
Air Force Western Test Range (AFWTR)
Object type
Payload
Rocket body
Debris
Shape & HBR
Box + 1 Pan, 17.7 m
Radar Cross Section
41.120 m², Large (>1 m²)

Expand to show TLE details & history
Last TLE update: 18 hours ago

TLE from 18 hours ago
0 STARLINK-34344
1 64159U 25112P   26236.41364018  .00014841  00000-0  46113-3 0  9998
2 64159  97.2837 283.8220 0002124 104.3952 255.7527 15.33444357 68591
Epoch: 2026-08-24T09:55Z
TLE epoch observation values (Epoch: 2026-08-24T09:55:38.511Z)
Latitude
0.00001°
Longitude
162.21584°
Altitude
469.015 km
Speed
7.631 km/s
True Right ascension
18h 55m 17s
True Declination
0° 00' 00"
Sunlit
Object was in full shadow at epoch
Visualization orbit readout
Latitude
Unknown
Longitude
Unknown
Altitude
Unknown
Speed
Unknown
Apparent Right ascension
Unknown
Apparent Declination
Unknown
Sunlit
N/A
Visualization observer readout
Local Sidereal Time
18:44:26
Azimuth
Unknown
Elevation
Unknown
Doppler factor
Unknown
Orbital elements
Apogee altitude
463.941 km
Perigee altitude
461.035 km
Semi-major axis
6,840.625 km
Eccentricity
0.00021
Inclination
97.2837°
RAAN
283.822°
Arg. of periapsis
104.3952°
True anomaly
255.72911°
Mean anomaly
255.7527°
Eccentric anomaly
255.74091°
Mean motion
3.83618 °/min
Orbital period
93.84 mins
BSTAR
0.00046113
Loading maneuver chart data...
Computing Atmospheric mass density...
Loading historical data...
Loading historical data...
Loading historical data...
Loading historical data...
Loading historical data...
Loading historical data...
Loading historical data...

Documentation

Showing up to 5 results
|